Location: Bourg-d�Oueil
(42.8588°N, 0.4991°E)
Time: 03:42:32
(UTC+00:00)

FengYun 1-2 T - Pass Details

Date: 29 January 2022
Orbit: 846 x 881 km, 98.7° (Epoch: 21 May)

Event Time Altitude Azimuth Distance (km) Brightness Sun altitude
Rises 04:24:37 0° 36° (NE) 3,481 7.9 -31.5°
Reaches altitude 10° 04:29:25 10° 73° (ENE) 2,540 7.5 -30.6°
Maximum altitude 04:30:43 11° 87° (E) 2,484 7.5 -30.3°
Drops below altitude 10° 04:32:02 10° 100° (E) 2,538 7.5 -30.1°
Sets 04:36:47 0° 137° (SE) 3,470 7.9 -29.2°
